Погода в Арауке

Колумбия     7°04′52″N   70°45′13″W
темп.,
°C
ветер,
м/с
пор.,
м/с
влажн.,
%
обл.,
%
осадки,
мм/ч
давл.,
гПа
погр.,
м
27 ноября, сб
сб2701:00+22ссз249865 0.0 1010106
04:00+22ссз22985 0.0 101057
07:00+24с1292100 0.0 1012132
10:00+27ссв23815 1.9 1013475
13:00+30всв126531 3.7 10091100
16:00+29вюв127554 0.4 1007391
19:00+24в229296 2.9 100917
22:00+24ссв229372 0.0 101018
28 ноября, вс
вс2801:00+23ссз239569 0.0 100956
04:00+22ссз239758 0.0 100975
07:00+24с239279 0.0 1012153
10:00+28ссв248077 2.8 1012504
13:00+29всв347268 5.4 1009895
16:00+28св137892 0.1 1007388
19:00+24всв129264 2.6 100913
22:00+23с229586 1.5 101040
29 ноября, пн
пн2901:00+23ссз249751 1.9 100981
04:00+22ссз2698100 0.9 1009162
07:00+23ссз2496100 0.9 1011146
10:00+28с3576100 0.0 1012870
13:00+29св3473100 0.9 1009988
16:00+28ссв238195 0.7 1007259
19:00+24зсз119165 0.9 100911
22:00+23ссз229314 0.0 101118
30 ноября, вт
вт3001:00+23ссз239526 0.0 100954
04:00+22сз249888 0.0 1009105
07:00+23с249273 0.0 1012163
10:00+29св35635 0.1 10121076
13:00+32св355447 0.1 10091976
16:00+30в246630 0.0 1007195
19:00+26св127636 0.0 100914
22:00+24сз228314 0.0 101043
1 декабря, ср
ср101:00+23ссз228726 0.0 100937
04:00+24с248499 0.0 1009102
07:00+24с258491 0.0 1012189
10:00+29ссв3662100 0.0 10131030
13:00+32св365177 0.0 10092164
16:00+31св24637 0.0 1007195
19:00+25ссз227814 0.0 100929
22:00+25зсз24799 0.0 101076